Location: Julian California
(33.0790°N, 116.6010°W)
Time: 11:34:43
(UTC-07:00)

Daily predictions for brighter satellites

Satellite Brightness Start Highest point End
(mag) Time Altitude Azimuth Time Altitude Azimuth Time Altitude Azimuth
Nadezhda 4 Rocket 4.3 19:58:32 10° SSE 20:04:20 45° E 20:10:12 10° NNE
PSLV R/B 4.2 20:01:42 10° N 20:05:51 79° WNW 20:10:00 10° SSW
NOSS 2-1 (C) 3.5 20:03:39 10° S 20:07:04 36° ESE 20:10:06 10° NE
CZ-4B R/B 3.9 20:08:47 10° NNW 20:11:38 27° WNW 20:14:25 10° SW
Cosmos 923 Rocket 4.3 20:07:11 10° S 20:12:13 46° ESE 20:17:17 10° NNE
USA 276 4.0 20:11:54 10° NNW 20:14:22 21° NNE 20:16:49 10° E
Resurs 01 Rocket 3.7 20:13:36 10° E 20:14:43 11° ENE 20:15:49 10° NE
NOSS 2-1 (D) 3.2 20:11:18 10° SSW 20:14:51 46° ESE 20:18:00 10° NE
Helios 1A Rocket 3.8 20:12:23 10° SE 20:15:56 30° ENE 20:19:31 10° N
Cosmos 2151 3.5 20:14:35 10° SSE 20:18:31 38° E 20:22:28 10° NNE
Cosmos 1633 2.6 20:17:15 10° S 20:20:50 83° W 20:24:26 10° N
Cosmos 2084 3.5 20:17:05 10° SW 20:21:05 78° WNW 20:25:10 10° NNE
USA 186 1.5 20:20:14 10° SSE 20:23:06 57° ENE 20:25:46 10° N
ERS-2 3.4 20:23:03 10° NE 20:25:50 21° E 20:28:36 10° SSE
SL-16 R/B 3.3 20:25:57 10° N 20:30:47 28° ENE 20:34:41 14° ESE
ISS -3.8 20:28:01 10° NW 20:31:22 86° SW 20:34:03 15° SE
Cosmos 1606 2.6 20:27:51 10° N 20:31:39 87° ENE 20:35:28 10° S
Cosmos 1842 Rocket 3.8 20:27:20 10° N 20:31:48 75° W 20:36:14 10° S
Cosmos 2221 3.1 20:31:02 10° NNW 20:35:18 61° W 20:39:35 10° S
COSMOS 2455 3.9 20:31:46 10° SSE 20:36:10 22° ESE 20:40:35 10° ENE
SAR-Lupe-1 3.9 20:33:12 10° NNE 20:36:46 72° ESE 20:40:18 10° S
SAR-Lupe-4 3.5 20:35:23 10° NNE 20:38:56 65° ESE 20:42:27 10° S
ASTRO E2 3.8 20:39:29 10° SW 20:42:44 25° SSE 20:44:09 20° SE
Cosmos 1680 Rocket 3.4 20:39:39 10° S 20:44:53 71° ESE 20:50:07 10° NNE
Meteor 2-19 Rocket 4.4 20:39:13 10° S 20:45:12 71° E 20:51:13 10° NNE
Cosmos 371 Rocket 3.5 20:41:42 10° NNW 20:46:30 74° WSW 20:51:17 10° S
Cosmos 2112 Rocket 4.0 20:41:18 10° S 20:46:30 61° ESE 20:51:41 10° NNE
Cosmos 1933 4.0 20:42:50 10° NNE 20:46:33 36° E 20:48:39 21° SE
Resurs 1-3 3.8 20:46:39 17° SE 20:49:50 50° ENE 20:54:05 10° N
Meteor 2-3 Rocket 3.7 20:44:19 10° S 20:49:54 73° E 20:55:38 10° NNE
Cosmos 1782 4.1 20:47:37 10° NNE 20:50:46 22° ENE 20:51:38 21° E
deb Centaur AC-2 4.1 20:53:11 10° WSW 20:57:22 55° S 20:59:42 25° ESE
Cosmos 2360 Rocket 3.5 21:00:32 10° N 21:04:59 24° ENE 21:06:54 20° E
SJ-6B 3.7 21:03:36 10° S 21:07:08 44° W 21:10:43 10° NNW
CZ-2C R/B 4.4 21:03:59 10° NE 21:07:52 29° E 21:08:06 29° ESE
SL-27 R/B 2.3 21:07:27 18° S 21:10:00 69° ESE 21:13:34 10° NNE
Cosmos 2195 Rocket 4.4 21:04:47 10° S 21:10:54 90° W 21:17:01 10° N
Ariane Rocket 2.9 21:09:09 22° SSE 21:12:29 80° ENE 21:17:34 10° N
SPOT 3 Rocket 4.0 21:13:17 30° ESE 21:15:11 42° ENE 21:20:04 10° N
Gbstr 26 Del rocket 2.9 21:11:45 10° NW 21:15:27 57° NE 21:16:29 41° E
GP-B 3.5 21:14:28 10° NNE 21:18:39 40° E 21:19:08 39° ESE
MOS 1 4.3 21:14:21 18° S 21:18:44 81° WSW 21:24:23 10° NNW
Okean 3 Rocket 3.5 21:17:13 30° SSE 21:19:18 63° E 21:23:46 10° NNE
IGS 5A 3.4 21:18:42 43° SE 21:19:51 62° ENE 21:23:57 10° N
BREEZE-M DEB (TANK) 3.8 21:18:00 10° NNW 21:21:22 38° NE 21:24:56 24° E
BREEZE-M R/B 3.0 21:14:16 10° SW 21:22:57 84° SE 21:26:28 10° NE
Cosmos 1980 Rocket 4.4 21:22:10 10° NW 21:26:17 21° W 21:30:24 10° SSW
Cosmos 1833 4.1 21:20:33 10° SSW 21:26:18 86° ESE 21:32:06 10° NNE
IRS-1A Rocket 4.4 21:22:45 20° S 21:26:41 71° WSW 21:32:10 10° NNW
OBJECT-B 3.7 21:25:01 10° SW 21:26:54 15° W 21:28:48 10° WNW
Cosmos 1151 Rocket 3.2 21:22:51 10° N 21:27:06 50° E 21:27:33 48° ESE
Cosmos 1624 Rocket 4.4 21:25:36 10° N 21:30:34 43° ENE 21:31:29 39° E
Centaur D AC-28 3.9 21:28:23 10° WSW 21:34:15 68° S 22:19:50 10° E
Centaur D AC-28 3.9 21:28:23 10° WSW 21:34:15 68° S 22:19:49 10° E
Centaur D AC-28 3.9 21:28:22 10° WSW 21:34:15 68° S 22:19:49 10° E
Centaur D AC-28 3.9 21:28:23 10° WSW 21:34:16 68° S 22:19:50 10° E
Centaur D AC-28 3.9 21:28:22 10° WSW 21:34:16 68° S 22:19:49 10° E
Centaur D AC-28 3.9 21:28:23 10° WSW 21:34:16 68° S 22:19:49 10° E
Meteor 2-14 Rocket 4.4 21:33:13 30° SSE 21:36:17 67° E 21:42:22 10° NNE
Cosmos 2333 Rocket 3.7 21:33:40 10° N 21:37:52 21° ENE 21:38:29 21° ENE
ERS-1 Rocket 4.4 21:40:15 23° ENE 21:40:15 23° ENE 21:43:51 10° NNE
Cosmos 2026 Rocket 4.5 21:34:05 10° SSW 21:40:19 61° W 21:46:29 10° N
Cosmos 2322 Rocket 2.1 21:36:18 10° NNW 21:41:56 89° ENE 21:43:35 48° SSE
Aurora 2 Rocket 4.2 21:36:56 10° WSW 21:43:05 44° S 21:45:00 38° SSE
Cosmos 1766 Rocket 4.3 21:45:51 24° SSW 21:48:12 51° W 21:52:27 10° N
Cosmos 1271 Rocket 4.1 21:44:41 10° NNW 21:48:23 36° W 21:49:38 29° SW
Landsat 7 4.0 21:48:05 48° SSW 21:49:18 69° WSW 21:54:03 10° NNW
ATLAS 3B R/B 4.3 21:43:21 10° NW 21:49:24 29° WSW 21:55:02 12° SSW
Atlas Centaur 2 3.3 21:45:49 10° WSW 21:49:00 21° SW 21:49:00 21° SW
USA 276 4.1 21:47:45 10° WNW 21:49:31 24° W 21:49:31 24° W
Resurs 01 Rocket 2.1 21:49:34 44° SSW 21:50:38 56° W 21:55:01 10° NNW
Cosmos 1328 Rocket 3.5 21:46:55 10° N 21:51:05 71° NE 21:51:05 71° NE
Cosmos 220 Rocket 4.0 21:47:07 10° NNW 21:51:30 78° WSW 21:51:42 76° SW
Cosmos 2219 Rocket 3.6 21:50:22 10° N 21:54:45 23° ENE 21:54:45 23° ENE
SPOT 5 4.1 21:59:42 26° NE 21:59:42 26° NE 22:02:19 10° N
ATLAS 5 CENTAUR R/B 4.1 21:58:23 10° N 22:02:36 20° NE 22:03:34 19° ENE
SPOT 1/Viking Rocket 3.6 22:08:46 66° SW 22:09:17 72° WSW 22:14:30 10° NNW
Spot 2 Rocket 3.5 22:12:19 70° NE 22:12:19 70° NE 22:17:02 10° N
Cosmos 2056 Rocket 3.5 22:06:59 10° NNW 22:12:15 73° WSW 22:12:24 72° WSW
SL-16 R/B 3.5 22:09:49 10° NW 22:14:48 33° WSW 22:16:35 27° SW
ARIANE 5 R/B 3.5 22:16:23 42° NNE 22:16:23 42° NNE 22:19:27 10° N
COSMOS 2455 3.7 22:15:56 10° SW 22:21:39 47° WNW 22:27:27 10° NNE
Meteor 1-10 Rocket 4.1 22:19:09 10° N 22:24:20 79° N 22:24:20 79° N
Cosmos 2333 4.4 22:19:25 10° NNW 22:24:22 60° NNE 22:24:22 60° NNE
Cosmos 489 Rocket 4.5 22:26:33 67° ENE 22:26:33 67° ENE 22:32:14 10° NNE
Cosmos 972 Rocket 4.3 22:28:55 65° NNW 22:28:55 65° NNW 22:33:23 10° N
Cosmos 2266 Rocket 3.8 22:28:52 81° SW 22:29:07 85° W 22:35:24 10° N
COSMOS 2428 3.6 22:31:29 10° N 22:35:46 39° NE 22:35:46 39° NE
Lacrosse 5 3.4 22:43:09 29° NNE 22:43:09 29° NNE 22:45:43 10° NNE
Cosmos 2360 Rocket 3.2 22:43:51 10° NW 22:48:40 39° W 22:48:40 39° W
Cosmos 2285 Rocket 4.3 22:44:09 10° N 22:49:22 56° NNE 22:49:22 56° NNE
Cosmos 2315 Rocket 4.3 22:48:44 10° N 22:53:58 60° NNE 22:53:58 60° NNE
Terra 3.4 23:04:31 32° NNW 23:04:31 32° NNW 23:07:05 10° NNW
Cosmos 2297 Rocket 3.9 23:15:32 24° NNE 23:15:32 24° NNE 23:17:42 10° NNE
NOSS 3-1 (C) 4.4 23:13:58 10° NW 23:21:46 60° WSW 23:21:46 60° WSW
Cosmos 2333 Rocket 3.5 23:16:57 10° NW 23:20:29 34° WNW 23:20:29 34° WNW
Cosmos 2227 Rocket 4.2 23:28:45 21° NNE 23:28:45 21° NNE 23:30:33 10° NNE
Cosmos 2237 Rocket 3.8 23:21:12 10° N 23:24:18 28° NNE 23:24:18 28° NNE
Cosmos 2219 Rocket 3.9 23:33:38 10° NW 23:36:28 27° WNW 23:36:28 27° WNW
USA 229 DEB 4.3 23:32:06 10° NW 23:38:12 60° WNW 23:38:12 60° WNW
USA 229 4.3 23:32:11 10° NW 23:38:18 60° WNW 23:38:18 60° WNW
USA 267 4.3 23:38:52 10° NE 23:42:30 36° NE 23:42:30 36° NE
ATLAS 5 CENTAUR R/B 3.6 23:41:35 10° NW 23:45:05 38° NW 23:45:05 38° NW
